FENGYUN 1C DEB, 29976

Orbit data source: Space-Track

FENGYUN 1C DEB, 29976 is space debris in SSO originally from a launch on Mon, 10 May 1999 UTC launched from the Taiyaun Space Center, China (TSC). Fengyun 1C debris stems from the Chinese weather satellite Fengyun-1C, which was intentionally destroyed by a Chinese anti-satellite missile in 2007. This event dramatically increased the amount of space debris, with thousands of trackable fragments posing hazards to satellites and human spaceflight. The Fengyun 1C debris cloud has become a focal point in discussions about space sustainability and the need for international regulations to prevent the creation of new debris.

Loading next visibility...
Identifier
29976, 1999-025LA
Orbit
SSO
Country
Flag of CNCN / PRC
Related business
Manufacturer
Unknown
Mission
Spacecraft
Bus & Motor
Unknown
Mass
Unknown
Launch date (UTC)
1999-05-10 (27 years ago)
Launch vehicle
Unknown
Launch site
Taiyaun Space Center, China (TSC)
Object type
Payload
Rocket body
Debris
Shape & HBR
Unknown shape, 0.1 m
Radar Cross Section
Small (<0.1 m²)

Expand to show TLE details & history
Last TLE update: 9 hours ago

TLE from 9 hours ago
0 FENGYUN 1C DEB
1 29976U 99025LA  26121.23788786 -.00000070  00000-0 -13200-4 0  9998
2 29976  98.9259 119.8960 0267319 213.7630 167.2977 13.98293013982862
Epoch: 2026-05-01T05:42Z
TLE epoch observation values (Epoch: 2026-05-01T05:42:33.511Z)
Latitude
21.44693°
Longitude
171.56405°
Altitude
1,092.376 km
Speed
7.212 km/s
True Right ascension
07h 45m 30s
True Declination
21° 20' 07"
Sunlit
Object was in daylight at epoch
Visualization orbit readout
Latitude
Unknown
Longitude
Unknown
Altitude
Unknown
Speed
Unknown
Apparent Right ascension
Unknown
Apparent Declination
Unknown
Sunlit
N/A
Visualization observer readout
Local Sidereal Time
22:13:32
Azimuth
Unknown
Elevation
Unknown
Doppler factor
Unknown
Orbital elements
Apogee altitude
1,091.383 km
Perigee altitude
702.431 km
Semi-major axis
7,275.044 km
Eccentricity
0.02673
Inclination
98.9259°
RAAN
119.896°
Arg. of periapsis
213.763°
True anomaly
167.94996°
Mean anomaly
167.2977°
Eccentric anomaly
167.62592°
Mean motion
3.49776 °/min
Orbital period
102.92 mins
BSTAR
-0.0000132
Loading maneuver chart data...
Computing Atmospheric mass density...
Loading historical data...
Loading historical data...
Loading historical data...
Loading historical data...
Loading historical data...
Loading historical data...
Loading historical data...

Documentation

Showing up to 5 results
|